Wind_Speed
36 36 36 35 34 33 32 31 30 29 28 27 26 26 25 25 25 24 24 23 23 23 22 21 21 20 20 19 18 17 16 15 14 13 13 12 11 11 10 10 10 9 9 9 9 8 8 8 8 8 7 7 8 8 8 8 8 8 8 8 9 10 10 10 9 9 9 9 9 9 11 12 12 10 9 9 10 10 11 12 12 12 12 12 11 11 11 10
37 37 37 36 36 35 34 33 32 30 29 28 28 27 27 26 26 26 25 25 25 25 24 23 23 22 21 21 20 18 17 16 15 14 13 13 12 11 11 10 10 9 9 9 8 8 8 8 8 7 7 8 8 9 9 9 10 10 10 10 11 11 12 11 10 10 10 10 10 10 11 13 13 11 10 10 11 12 12 12 13 12 13 12 12 12 12 11
36 36 36 36 36 36 35 35 33 32 31 30 29 29 28 28 28 28 28 27 27 27 26 25 25 24 23 22 21 20 18 17 16 15 14 13 13 12 11 10 10 10 9 9 9 8 8 8 8 8 8 9 10 10 11 11 12 12 12 11 12 12 12 12 11 11 11 11 11 11 12 14 14 13 12 11 12 13 13 14 13 13 13 13 13 13 13 12
37 36 36 36 36 36 36 36 35 34 33 32 31 30 30 30 30 30 29 29 29 28 27 27 26 25 25 23 22 21 20 19 18 16 15 14 14 13 12 11 11 10 10 9 9 8 8 7 8 8 8 9 10 11 11 12 13 13 13 13 13 14 13 12 11 12 13 13 13 12 13 14 15 14 14 13 13 14 14 14 14 13 14 14 14 14 14 14
39 38 37 37 36 36 37 36 36 35 35 34 33 32 32 32 32 32 31 31 31 30 29 28 28 27 26 25 24 23 21 20 19 18 17 16 15 14 13 13 12 11 11 10 9 8 8 8 8 8 8 9 11 11 11 12 13 13 13 13 14 15 14 12 12 13 14 15 14 14 15 15 16 16 15 14 14 14 14 14 15 14 14 15 15 15 15 15
40 40 39 39 38 38 38 38 37 37 36 36 35 34 34 34 34 34 33 33 32 32 31 30 29 28 27 26 25 24 23 21 20 19 19 18 17 16 15 14 14 13 12 11 10 10 10 10 9 8 8 10 11 11 11 12 13 13 14 14 14 15 15 14 14 14 15 15 16 16 16 17 17 17 16 16 16 15 14 14 15 15 16 16 16 16 16 16
41 41 41 41 41 40 40 40 39 39 38 37 37 36 36 36 36 36 35 35 34 33 33 32 31 30 29 28 27 26 25 23 21 21 20 19 19 18 17 16 15 14 14 13 12 12 12 11 10 9 10 11 11 11 11 12 13 14 15 15 14 15 16 16 16 16 16 16 17 18 18 18 18 18 18 19 18 18 16 15 15 16 16 17 17 17 18 18
40 41 41 41 42 42 42 42 41 41 40 40 39 38 37 37 38 38 37 37 36 35 34 33 33 32 31 30 29 28 26 25 24 22 22 21 20 19 18 17 17 16 15 14 14 14 14 13 12 12 11 12 12 12 11 11 12 14 15 15 14 15 17 17 17 18 18 18 18 19 20 19 19 19 19 21 21 20 18 16 16 16 17 17 18 18 19 19
40 40 40 41 41 42 43 43 43 43 42 42 41 40 39 39 39 39 39 39 38 37 36 35 35 34 33 31 30 29 28 27 26 25 23 22 21 20 20 19 18 18 17 17 16 16 16 15 15 14 14 13 14 13 12 12 13 14 15 15 15 15 17 19 19 19 18 19 20 21 21 20 20 20 21 22 23 22 21 18 17 17 17 18 19 19 20 20
40 40 40 40 41 41 43 44 44 44 44 43 42 42 41 41 41 41 41 41 40 39 38 37 36 35 34 33 32 31 30 29 28 27 25 24 23 22 21 21 20 20 19 19 18 18 18 18 17 17 16 15 15 15 14 13 14 14 15 16 16 15 17 19 20 19 19 21 22 22 22 21 21 21 22 24 23 23 22 21 19 18 18 19 19 20 20 21
39 39 40 40 40 41 42 43 44 45 45 45 44 43 43 42 42 43 43 43 42 41 40 39 38 37 36 35 34 33 31 30 29 28 27 26 25 24 23 22 22 22 21 21 21 20 21 20 20 19 18 17 17 16 16 15 15 15 15 16 17 17 18 19 21 21 21 22 24 24 23 22 22 22 23 25 24 23 23 22 21 20 19 19 19 20 20 21
39 39 40 40 40 41 41 42 43 44 45 45 45 45 44 44 44 44 45 45 44 43 42 41 40 39 38 36 35 34 32 32 31 29 29 28 27 26 25 24 24 24 23 23 22 22 22 22 22 21 20 20 19 18 18 17 17 17 17 17 18 19 20 21 22 23 23 24 25 25 23 22 24 24 25 25 25 24 23 23 22 21 20 20 20 19 20 21
40 40 40 40 40 40 40 41 42 43 44 45 45 45 45 45 45 45 46 46 46 45 44 43 42 40 39 38 37 36 34 33 32 31 30 29 28 27 27 26 25 25 25 24 24 24 24 23 23 23 22 22 21 21 20 19 19 19 19 19 21 22 22 22 23 24 25 25 27 28 25 23 26 27 26 26 25 24 24 23 23 22 21 20 20 20 21 22
41 40 40 40 40 40 40 40 41 42 43 44 45 45 46 45 45 46 46 47 47 46 45 44 43 42 41 40 39 37 36 35 34 33 32 31 30 29 29 28 27 27 26 26 25 25 25 25 25 24 24 23 23 22 22 21 20 21 21 22 23 24 24 24 24 24 26 27 28 30 27 24 28 29 28 28 26 25 23 22 22 22 22 21 21 21 21 23
42 42 41 41 40 40 40 40 41 42 42 42 44 45 45 45 46 46 47 47 47 47 47 46 45 44 43 41 40 39 38 37 36 35 34 33 32 31 30 30 29 28 28 28 27 27 26 26 26 26 25 25 25 24 23 22 22 23 24 25 25 25 26 25 25 26 28 29 30 32 30 26 29 31 30 29 28 26 24 22 22 22 22 21 21 22 23 24
44 43 43 42 42 42 41 41 41 42 41 41 43 44 44 45 46 46 47 48 48 48 48 47 46 45 44 43 42 41 39 38 37 36 36 35 34 33 32 31 31 30 29 29 28 28 28 28 27 27 27 26 26 25 24 24 24 26 28 28 27 27 27 26 27 28 30 32 33 34 33 29 30 32 31 30 29 26 24 22 22 21 21 22 23 24 25 26
46 45 45 44 44 44 43 43 43 43 42 41 42 43 44 45 45 46 47 48 48 48 48 48 48 47 46 44 42 41 40 39 39 38 38 37 36 35 34 33 32 32 31 31 30 30 29 29 29 28 28 28 27 27 27 26 26 29 30 29 29 29 29 29 29 31 32 34 35 35 33 31 31 32 30 30 29 26 23 22 22 22 22 23 25 26 27 28
48 47 46 46 46 45 45 45 45 44 43 42 43 43 44 45 46 47 47 48 49 49 49 49 48 48 46 44 42 41 41 41 41 41 40 39 38 37 36 35 35 34 33 32 32 32 31 31 30 30 29 28 28 29 29 28 29 31 31 30 30 30 31 31 32 33 34 35 35 35 33 31 32 32 30 29 28 25 22 22 22 22 24 26 27 27 28 28
51 50 49 48 47 47 47 47 46 46 45 44 44 44 45 45 46 47 48 49 49 49 49 48 47 47 47 45 43 43 42 43 42 42 41 40 40 39 38 37 36 36 35 35 34 34 33 32 31 31 30 30 31 31 31 30 31 32 32 32 32 32 32 33 34 35 36 36 35 34 34 31 30 31 30 29 28 25 22 22 22 24 26 28 28 28 28 28
55 53 52 50 49 49 49 48 48 47 47 46 46 46 46 46 47 47 48 48 49 49 49 49 48 49 49 47 45 45 44 43 43 42 42 42 41 40 39 39 38 38 37 37 36 35 34 34 33 31 31 32 33 33 32 32 32 33 34 34 34 34 33 34 36 37 37 38 36 35 35 32 29 30 30 30 28 25 24 25 25 25 27 28 29 29 28 28
57 56 55 53 52 51 50 50 49 49 49 48 48 48 48 48 48 48 48 49 49 49 50 51 50 51 50 48 47 45 44 44 43 43 43 43 42 42 41 40 40 39 39 38 38 37 36 35 34 33 34 34 35 34 34 33 34 35 35 35 36 36 35 35 37 37 39 40 37 36 37 34 31 30 31 31 29 26 26 27 27 28 28 28 28 29 28 28
59 58 58 57 55 54 53 52 51 51 50 50 50 50 50 50 50 50 50 51 50 51 51 52 52 51 51 50 48 47 46 45 44 44 44 44 44 44 43 42 42 41 40 40 39 39 38 37 35 35 36 36 36 36 36 35 35 36 36 37 38 37 38 38 38 38 40 41 39 37 38 36 32 31 31 31 30 28 28 29 29 30 29 28 28 29 28 28
60 60 60 59 58 57 56 54 53 53 52 52 52 52 52 52 52 52 52 53 52 52 52 53 53 52 51 51 50 49 48 47 46 46 46 46 45 45 45 44 43 42 42 42 41 41 40 38 37 37 38 37 37 38 38 37 37 37 38 38 39 38 40 40 39 40 41 41 41 39 39 36 31 29 28 29 31 29 29 30 30 30 28 27 27 27 27 28
63 62 62 61 61 60 59 58 56 55 54 54 53 54 54 54 53 54 54 55 55 53 53 54 54 54 53 52 52 51 50 49 48 47 47 47 46 46 46 44 44 44 44 44 43 42 41 40 40 39 39 39 39 39 39 39 39 39 39 40 40 39 41 41 41 41 41 41 40 40 42 37 29 29 27 27 30 28 27 29 28 28 27 26 26 27 27 28
63 64 64 63 63 62 61 61 59 58 57 56 55 56 55 55 55 56 56 58 58 56 54 55 56 55 54 54 54 53 52 51 49 48 47 47 47 47 46 46 46 46 45 44 44 44 42 42 42 41 41 40 40 40 40 41 41 41 41 41 41 42 43 43 42 41 41 41 39 40 44 38 29 27 25 24 28 28 27 26 25 25 26 26 27 27 28 29
61 63 64 64 64 64 63 62 61 61 60 58 58 57 57 57 57 57 57 59 62 59 56 56 57 57 56 56 56 54 54 53 51 50 49 48 49 49 48 48 47 46 46 45 46 46 44 43 43 42 42 42 42 42 41 41 42 43 43 42 43 44 44 43 42 42 43 42 39 40 44 41 32 25 22 23 26 27 26 24 23 25 27 27 28 29 29 31
54 58 62 64 64 64 64 63 62 62 61 61 61 59 59 59 59 59 58 60 64 62 58 56 57 58 58 56 56 56 57 56 52 51 51 50 50 49 49 49 48 47 46 46 47 48 47 45 44 44 45 45 45 43 41 42 44 45 45 44 44 44 44 43 42 43 43 43 43 40 40 42 35 25 22 25 27 27 24 23 24 26 28 29 30 31 32 33
46 51 58 62 64 64 63 64 64 62 63 63 62 62 61 61 61 60 60 62 66 65 61 58 59 60 59 57 57 58 59 58 55 53 52 51 51 50 50 50 49 48 47 48 49 48 49 48 47 46 47 48 46 44 43 44 45 46 45 44 43 42 42 42 43 44 44 45 46 40 35 40 38 30 27 29 27 25 23 22 25 28 29 31 31 33 34 34
45 48 50 54 60 64 65 65 63 63 65 65 64 64 63 63 63 62 62 65 67 66 64 62 60 60 60 59 58 58 59 59 57 55 53 52 52 51 51 50 49 49 49 49 50 50 51 51 49 49 48 48 47 45 45 44 44 45 44 43 40 40 41 41 43 44 45 48 47 38 33 38 42 36 32 31 27 25 24 23 25 27 29 30 31 33 35 36
49 50 48 49 52 57 62 63 63 65 65 64 65 66 66 66 64 62 64 68 67 67 67 65 63 62 62 60 60 59 59 59 57 56 54 53 52 52 51 50 50 51 51 51 51 52 53 53 52 51 50 48 47 48 47 46 45 44 44 43 41 41 41 41 44 43 46 50 45 37 34 39 45 40 33 32 30 27 26 25 26 28 28 29 31 33 35 37
52 51 50 49 47 48 52 55 60 64 66 65 64 63 66 67 65 64 66 67 67 69 71 69 66 64 64 63 62 61 59 59 58 57 56 54 54 53 53 52 52 53 54 55 55 54 55 55 55 55 53 52 51 50 50 48 47 46 45 44 43 43 43 43 45 44 47 49 44 40 38 41 47 42 36 37 34 31 31 30 29 28 28 30 33 35 37 38
54 52 50 49 46 45 46 46 49 55 61 65 64 63 65 68 70 69 65 60 63 69 71 71 69 67 67 66 65 64 63 62 61 60 59 57 57 56 55 55 55 55 57 58 57 57 57 57 57 58 58 57 54 50 48 47 46 45 44 43 43 44 46 47 48 47 48 49 46 44 43 45 48 43 38 39 38 37 38 36 34 32 31 33 34 37 39 39
56 53 50 49 48 46 45 45 45 47 50 54 60 64 67 71 74 71 65 62 64 66 66 67 69 68 69 69 68 67 66 66 65 64 63 62 61 60 59 58 58 59 60 59 59 59 59 59 59 59 58 56 53 49 47 46 45 44 44 44 44 45 48 49 49 49 48 48 47 47 48 50 48 42 39 40 41 44 43 41 39 37 37 37 37 38 39 39
57 56 53 51 51 49 47 48 49 49 48 48 51 57 64 71 74 70 67 66 65 63 63 65 65 66 66 66 66 66 65 66 66 65 65 65 65 64 63 62 61 61 61 61 62 62 62 62 60 57 56 55 52 50 48 46 46 46 46 46 46 47 49 49 48 48 49 49 50 51 52 52 48 43 42 42 43 46 46 44 42 41 40 40 39 39 39 39
58 57 55 54 54 53 51 50 50 51 53 52 51 54 59 63 66 68 68 66 64 64 64 65 65 65 64 62 62 62 61 62 63 63 64 64 64 63 62 62 60 60 59 60 61 61 61 61 59 56 54 53 52 50 49 48 48 48 48 49 49 48 47 47 48 50 52 54 55 55 56 53 50 47 46 45 44 44 45 44 44 44 43 41 40 40 39 38
58 56 55 56 56 55 54 53 52 53 55 56 57 59 58 55 57 62 64 63 64 65 65 66 67 66 64 62 61 59 58 59 60 61 62 61 61 59 59 58 58 58 57 56 57 57 57 57 55 54 53 52 51 51 50 50 50 49 50 50 50 48 47 48 52 54 56 58 58 57 56 54 52 48 45 44 44 43 45 45 45 45 42 41 40 39 37 36
60 59 59 59 57 56 56 55 55 56 57 59 60 59 56 54 53 55 58 60 62 64 66 68 69 68 67 65 64 62 61 61 60 60 60 60 59 56 55 56 55 55 54 52 53 54 55 55 54 52 52 51 50 50 51 51 52 52 51 50 48 49 50 52 55 57 58 60 59 57 56 54 53 48 42 41 43 44 45 45 45 43 40 39 39 37 36 35
61 62 61 59 57 57 56 56 58 59 59 61 62 59 57 55 51 50 53 55 57 61 65 69 69 69 69 69 68 67 67 67 65 63 61 61 60 56 55 56 55 54 53 51 52 53 54 55 54 52 52 52 52 52 52 53 53 53 50 48 47 49 51 52 55 56 57 60 59 56 55 52 49 45 41 42 44 44 45 44 43 41 39 38 37 34 34 33
63 64 62 58 58 59 58 58 60 60 61 63 64 60 56 55 51 49 50 51 52 54 58 63 68 70 71 70 69 69 69 69 67 67 66 65 63 59 58 58 58 56 54 53 53 52 52 55 55 54 53 54 54 54 54 54 53 51 49 49 49 50 51 51 53 54 55 58 58 56 54 48 43 42 44 45 45 45 45 43 41 40 39 37 34 32 32 32
64 65 61 57 59 61 60 60 62 62 62 63 64 62 59 55 52 49 49 51 53 53 51 54 60 66 71 72 71 70 69 68 67 66 65 66 65 63 61 60 59 56 55 54 53 52 53 55 55 55 55 56 56 55 55 53 52 51 51 52 52 51 51 51 52 53 54 56 56 55 52 46 43 43 44 45 43 42 41 38 37 38 35 33 32 31 31 31
65 66 62 58 60 62 62 63 65 65 65 64 63 62 62 59 56 52 50 51 54 53 51 51 52 57 62 66 68 68 65 64 64 63 62 62 62 61 60 58 56 54 54 54 54 53 54 54 54 55 57 58 57 55 55 54 54 54 54 55 55 53 53 53 54 54 54 53 51 51 51 47 45 45 46 46 42 39 37 35 37 38 36 32 31 32 32 31
67 67 63 60 61 63 65 67 66 64 65 65 63 63 62 61 59 58 56 54 54 53 52 52 52 53 55 57 60 60 59 59 60 59 58 58 57 55 54 54 53 53 54 54 54 53 53 54 56 57 58 58 58 57 58 58 57 57 57 58 57 56 55 54 54 52 51 49 48 51 53 49 46 47 49 48 43 40 39 38 39 41 39 35 32 32 33 32
68 66 64 63 62 63 67 70 69 67 63 59 59 62 62 60 59 58 57 57 56 55 52 52 53 53 53 53 53 54 54 55 57 57 56 55 54 53 53 54 55 54 54 54 54 54 53 54 55 56 56 56 56 58 58 59 60 61 61 58 54 52 51 50 50 48 48 49 50 53 55 52 49 51 52 50 47 45 43 41 42 43 42 38 34 33 33 33
69 67 67 66 64 65 69 71 71 72 68 61 59 61 60 60 60 58 56 56 57 56 54 53 53 52 52 52 53 53 53 55 56 55 55 54 53 52 53 55 56 56 55 55 53 51 51 49 47 49 51 51 54 57 58 61 61 59 56 52 48 47 45 46 46 46 48 51 50 53 57 55 53 53 52 51 50 47 43 42 44 45 44 41 37 34 33 34
70 71 71 69 67 68 70 70 70 71 70 68 66 65 62 61 60 59 59 58 57 56 56 55 54 53 52 53 54 54 54 55 56 55 54 54 53 52 53 55 56 56 55 53 51 50 50 49 47 48 49 50 51 52 52 52 51 50 50 49 47 46 44 45 45 46 51 54 53 55 58 56 52 53 53 52 50 47 44 43 45 46 45 43 39 36 33 33
71 73 74 73 71 71 70 70 71 72 71 71 71 70 67 64 61 61 62 63 61 59 57 56 56 55 55 56 56 56 54 53 56 56 55 54 54 54 54 55 55 55 54 53 50 48 48 48 48 48 49 50 49 47 44 43 45 47 48 49 48 47 47 47 48 52 56 57 56 57 57 54 52 52 52 50 48 47 45 44 47 48 46 44 41 38 34 33
72 74 76 75 74 74 73 72 73 74 73 73 75 74 72 68 65 65 66 66 64 64 61 59 59 60 60 59 59 58 56 53 54 55 54 55 56 56 55 54 54 53 53 52 50 48 48 46 45 45 46 46 45 46 46 45 46 47 47 48 49 49 50 52 55 57 56 56 58 57 55 56 55 51 48 48 47 47 46 46 47 47 45 44 42 39 37 35
74 74 75 76 77 77 75 73 73 73 74 74 76 76 75 73 70 69 68 65 65 66 66 65 64 62 60 59 59 60 59 57 56 54 53 55 56 56 55 54 53 52 50 49 49 49 50 48 44 44 45 43 43 46 47 47 48 48 48 49 49 50 53 56 59 59 57 59 62 58 56 59 56 51 50 50 48 47 46 46 46 45 45 44 43 42 40 37
73 73 71 72 75 77 76 76 74 72 73 75 77 76 76 76 75 72 68 67 68 69 68 68 66 63 60 58 59 61 60 59 58 54 53 54 54 53 53 53 52 50 49 48 48 49 51 50 46 45 46 44 44 47 49 50 51 52 51 50 50 52 55 58 59 58 59 63 62 58 59 59 55 51 51 50 48 46 46 46 47 46 46 45 45 45 44 42
72 73 70 68 69 70 73 75 76 75 73 73 75 77 76 75 75 74 73 72 71 70 69 69 66 63 62 61 61 61 57 55 55 53 51 52 53 53 53 53 53 52 52 50 49 49 49 48 45 45 46 45 43 45 49 49 51 52 51 51 53 56 58 60 60 58 59 62 59 56 59 57 52 50 49 48 49 48 47 46 47 47 47 48 48 48 48 47
69 71 73 72 69 67 67 69 72 77 76 73 72 73 75 76 75 74 75 76 74 71 71 69 63 60 60 61 61 59 54 51 52 52 51 52 52 51 50 50 50 50 52 53 51 50 48 46 46 46 48 45 40 42 46 46 47 50 51 52 55 57 58 58 57 56 57 59 58 58 59 55 49 49 50 51 51 50 47 46 47 48 49 49 50 50 51 51
69 68 71 75 74 72 70 67 67 72 76 77 74 70 68 70 72 74 76 77 76 75 73 71 66 62 61 60 59 56 52 51 51 51 51 52 53 53 52 50 48 48 49 51 51 50 48 47 47 47 49 46 42 45 47 47 50 53 52 51 52 53 54 54 54 53 54 55 57 58 57 52 48 51 52 52 52 50 49 49 49 49 50 50 50 51 52 52
Wind_Direction
215 215 215 214 214 214 214 214 214 214 215 216 216 216 214 212 210 208 206 203 200 198 196 195 194 193 191 189 186 185 186 185 186 187 188 188 188 187 186 185 184 183 182 183 185 187 192 197 202 208 212 218 223 229 235 240 245 250 257 264 271 276 281 284 287 291 291 296 304 308 308 305 308 316 318 312 305 301 296 291 289 288 278 264 261 265 273 281
216 215 214 214 214 214 214 214 214 215 216 217 218 217 215 213 210 208 205 203 201 200 199 198 197 196 194 191 189 189 190 189 191 192 192 192 192 192 191 191 191 191 192 194 196 198 202 208 214 219 224 231 236 242 245 250 254 257 261 265 272 277 281 284 287 288 288 293 300 306 305 302 306 312 312 308 302 298 293 288 289 290 281 268 259 258 265 275
216 215 215 214 214 214 214 215 215 215 217 217 218 218 217 214 211 208 206 204 202 201 201 201 200 199 197 194 192 192 193 193 196 197 197 196 195 195 195 194 195 196 198 203 206 209 214 220 228 233 238 244 248 252 255 258 261 264 266 269 272 275 277 281 283 283 287 290 296 304 304 303 306 307 307 306 300 296 293 290 289 288 281 273 262 257 260 266
216 216 215 215 215 215 215 215 215 216 217 218 218 218 217 215 212 209 207 205 204 203 204 204 203 202 200 198 196 197 197 198 200 201 202 202 201 201 201 201 202 202 204 208 212 214 218 225 234 239 245 252 255 257 260 264 266 269 271 273 274 273 274 276 276 280 286 290 294 300 302 303 305 305 307 305 299 295 293 290 288 284 279 274 267 263 262 263
217 217 217 217 217 218 218 217 217 217 218 219 219 218 218 216 213 210 209 207 206 206 206 207 206 205 204 202 200 200 201 201 202 204 205 206 207 207 207 208 209 210 211 214 217 221 223 225 231 239 246 253 259 261 264 268 271 273 274 274 273 273 273 272 273 278 284 290 295 299 301 303 305 306 307 303 299 295 291 287 284 281 277 273 269 266 264 265
219 219 218 219 219 219 220 219 219 219 220 220 220 219 219 217 214 212 210 209 208 208 208 209 209 209 208 206 204 205 206 205 205 207 209 210 211 212 213 214 216 217 219 221 224 226 227 229 233 239 247 254 260 265 269 272 274 274 272 272 274 276 276 274 275 277 282 289 295 299 302 304 306 308 305 301 298 295 289 283 279 277 275 273 272 269 269 270
221 220 220 219 219 220 220 220 220 221 221 222 222 221 219 218 215 213 211 210 210 210 210 211 211 211 211 209 208 209 210 210 210 211 213 214 215 216 218 220 222 224 225 228 231 233 234 237 241 244 249 257 262 266 270 272 273 273 272 272 275 277 278 278 279 280 283 288 293 298 301 305 308 308 305 301 298 295 291 285 277 272 271 271 271 271 271 273
222 222 221 221 220 220 220 221 221 221 222 223 223 222 220 219 216 215 213 212 212 212 212 213 213 213 213 212 212 213 214 214 215 215 216 218 220 221 224 226 228 230 232 235 237 239 242 245 248 249 252 259 264 268 270 272 273 273 274 275 275 277 280 280 280 282 285 289 294 297 301 306 309 308 304 299 298 299 296 291 282 273 268 266 266 267 268 270
224 224 223 223 223 222 221 221 222 222 222 223 224 224 222 220 217 216 214 213 213 213 214 214 215 215 215 215 215 216 217 217 219 220 220 221 223 225 228 230 233 235 237 238 241 244 247 251 253 253 254 259 266 270 272 274 275 276 279 280 278 278 280 281 281 282 287 291 294 297 301 306 308 306 301 297 299 300 297 292 284 276 269 263 261 260 262 264
226 226 226 225 225 224 224 223 223 223 223 224 224 224 223 221 219 216 215 215 214 215 215 215 216 217 217 218 218 219 219 220 222 223 225 225 226 228 230 233 236 238 239 241 243 246 250 254 256 258 259 261 266 271 275 277 280 281 283 283 282 280 278 279 281 284 288 291 294 296 300 304 305 303 298 297 299 298 296 292 286 278 271 266 263 261 261 262
228 228 228 228 227 227 226 225 225 224 224 225 225 225 224 223 220 218 216 215 215 216 216 217 218 218 219 220 220 221 221 223 224 225 228 229 230 232 233 236 238 240 242 243 245 248 251 255 257 260 263 265 268 272 277 280 283 284 285 285 285 282 279 280 283 286 289 291 294 296 300 303 301 298 295 296 297 296 294 291 287 282 276 272 270 269 268 267
228 229 229 229 229 229 228 228 227 226 226 226 226 226 225 223 221 219 217 216 216 217 217 218 219 220 221 221 223 223 223 225 227 228 230 232 233 235 236 238 240 243 244 246 248 250 252 255 257 260 263 267 269 272 276 280 284 287 288 287 284 281 281 282 285 288 291 293 294 295 298 300 296 294 293 294 294 293 292 288 285 283 279 276 275 274 273 272
227 228 229 229 230 230 230 229 229 228 227 227 227 226 225 224 222 220 218 217 217 218 218 219 220 221 222 223 225 226 226 227 229 230 232 234 236 237 239 240 242 244 246 248 250 252 254 257 259 261 263 266 269 272 276 280 285 287 287 285 283 282 282 283 286 291 293 294 294 293 295 297 294 293 292 292 291 290 288 285 283 281 279 278 276 275 274 274
227 227 228 229 229 230 230 229 229 229 228 228 227 227 226 224 223 221 220 218 218 218 219 220 221 222 223 225 226 227 228 230 231 233 234 236 238 239 240 242 244 246 248 250 252 253 256 258 261 263 265 266 268 272 276 280 284 285 285 282 281 282 284 287 290 292 292 292 292 291 292 294 293 291 290 289 289 287 285 282 280 279 278 277 276 276 274 274
227 227 228 228 228 229 229 229 229 229 228 228 228 227 226 225 223 222 220 219 219 219 220 221 222 223 224 226 227 229 230 232 234 235 237 238 239 241 242 244 245 247 250 252 254 256 257 259 261 263 265 267 268 271 275 279 283 284 282 280 281 285 287 290 292 291 291 290 290 289 291 292 290 289 289 288 286 285 283 280 276 275 276 276 276 275 275 275
228 228 228 228 228 228 228 229 229 228 227 227 228 227 226 225 223 222 221 220 220 220 220 221 222 224 225 226 228 230 232 233 235 237 238 239 240 242 244 245 247 249 251 254 256 258 260 261 262 264 266 268 270 273 275 277 280 280 280 282 286 289 289 290 290 290 291 290 290 290 291 292 288 286 286 286 285 284 281 277 274 273 274 275 276 276 276 276
229 228 228 228 228 228 228 228 229 228 227 226 227 227 226 225 224 222 221 220 221 221 221 222 223 224 225 227 228 231 233 235 236 238 240 241 242 243 245 247 249 251 253 255 257 260 261 262 264 265 267 269 272 274 274 276 277 278 281 286 289 289 290 290 289 290 291 290 290 290 291 290 286 284 284 283 283 282 277 273 273 274 275 276 277 278 278 279
229 229 229 229 229 229 228 228 228 228 227 227 226 226 226 225 225 223 222 221 221 222 223 223 224 226 227 228 230 232 234 236 237 239 241 242 243 244 246 247 249 251 254 256 258 260 262 264 265 267 269 272 272 272 273 275 276 279 284 287 288 289 289 290 291 292 291 290 290 289 289 288 286 285 284 281 280 279 275 271 271 274 276 277 278 278 278 278
230 230 230 230 230 230 230 229 229 229 228 227 227 227 226 226 225 224 224 223 222 223 224 225 226 227 228 229 231 232 234 236 238 240 242 243 244 245 247 248 250 253 255 257 259 260 263 266 267 269 271 272 271 272 274 276 278 281 284 286 287 288 289 291 293 292 291 289 288 287 286 285 285 285 282 279 276 275 273 270 269 272 276 278 279 279 278 279
232 231 231 231 231 232 232 231 230 230 229 228 228 228 228 228 227 227 226 225 225 225 225 226 227 228 229 230 232 233 235 237 239 241 243 244 245 247 248 250 252 254 256 258 260 262 264 266 269 271 272 271 271 273 275 278 280 282 284 285 287 288 289 292 292 292 291 289 287 285 284 283 283 282 280 278 277 275 273 272 272 274 276 278 279 279 279 280
233 232 232 232 232 232 233 233 232 231 231 230 229 229 229 229 229 229 228 227 227 227 227 227 228 229 230 231 233 235 236 238 240 242 244 245 247 248 250 251 252 254 256 258 261 263 264 267 269 271 271 271 273 274 276 278 279 281 283 285 287 288 290 290 291 292 290 287 287 286 284 283 280 277 276 277 277 275 272 273 276 276 276 276 276 276 277 278
233 233 233 232 232 233 233 233 233 233 233 232 232 231 230 230 230 230 230 230 229 229 229 229 229 230 232 233 234 235 237 238 240 242 244 246 247 249 250 251 253 255 258 260 262 264 265 267 269 270 271 272 273 274 276 277 278 281 283 285 286 288 289 289 290 289 288 286 286 285 284 282 280 277 275 276 275 273 273 274 275 276 275 274 273 273 274 275
234 233 233 233 233 233 233 233 234 234 235 235 235 234 233 232 232 232 232 231 231 231 231 231 231 231 233 234 235 235 237 238 239 241 243 245 247 249 251 253 255 257 260 261 263 264 266 268 269 270 270 271 272 274 275 277 279 281 282 283 285 287 288 289 289 287 286 285 285 285 281 278 278 279 279 279 279 277 276 274 274 275 274 273 272 273 274 274
236 235 234 233 233 233 233 234 234 235 236 237 237 237 236 236 235 235 235 234 232 232 233 233 233 233 234 236 237 237 238 238 240 241 243 246 249 251 253 255 257 259 260 262 263 265 267 268 269 269 270 270 272 274 276 277 278 279 280 282 284 286 286 286 286 284 283 283 284 284 279 276 277 280 282 284 284 284 280 275 274 275 274 274 275 275 275 275
239 237 236 234 234 233 233 233 234 235 236 237 238 239 238 238 238 237 237 237 234 232 234 235 235 235 236 237 238 239 240 240 241 243 245 247 250 251 253 254 256 259 261 262 264 265 266 267 268 269 270 271 272 273 275 276 277 279 280 282 284 284 284 284 284 282 281 281 280 280 278 277 277 279 282 283 283 283 281 278 276 277 277 277 277 276 277 277
239 240 239 237 235 234 233 233 234 235 235 237 238 239 239 240 240 240 240 240 236 233 234 236 237 237 237 239 239 241 242 241 242 245 246 248 250 251 253 255 257 259 261 262 263 264 265 266 267 268 269 270 270 272 274 276 278 279 281 282 282 282 282 281 281 280 280 279 276 273 276 280 279 278 281 280 276 275 277 279 279 277 277 276 276 277 278 279
237 240 240 240 239 237 235 234 234 235 236 237 238 238 240 240 242 242 242 244 240 234 234 236 238 238 238 240 241 243 244 243 244 246 247 249 251 252 254 256 257 259 260 261 262 264 265 266 266 267 268 268 270 273 275 276 278 279 280 280 279 279 279 279 279 279 278 277 273 270 276 282 280 277 278 274 271 275 280 282 279 275 275 274 275 276 277 278
234 237 239 240 240 239 238 237 236 236 236 237 238 239 240 240 242 242 243 245 241 237 236 236 237 240 241 241 242 244 245 245 245 247 248 250 251 252 254 256 258 259 260 261 263 264 264 264 264 265 266 268 271 274 274 275 276 277 278 277 277 277 277 277 276 276 276 274 271 272 280 284 281 278 276 270 270 279 282 280 278 276 275 275 275 276 277 277
236 236 236 238 239 239 240 239 239 239 239 239 239 239 240 240 241 242 243 244 241 240 240 238 238 240 242 243 244 245 246 247 248 248 249 250 252 253 255 256 258 259 259 261 263 263 263 263 264 265 266 269 271 272 272 273 274 274 274 274 275 274 274 274 272 272 272 270 270 276 282 284 282 278 274 273 278 284 281 279 278 276 275 276 277 277 276 275
238 237 236 237 237 238 239 240 240 241 242 241 241 241 241 241 241 242 243 242 241 243 243 241 240 240 242 244 246 247 248 249 250 251 251 251 252 254 255 256 257 258 259 260 261 262 263 265 266 266 267 268 269 269 270 270 270 270 271 272 272 272 271 270 269 269 269 270 273 278 280 281 280 278 278 280 285 287 284 283 281 278 278 278 277 276 275 274
235 237 236 236 236 237 239 240 241 241 242 242 243 243 243 242 241 241 243 243 242 243 244 245 243 242 243 245 247 248 249 250 251 252 253 253 253 253 254 255 256 258 259 260 260 262 263 265 267 268 268 268 267 267 267 267 268 268 269 270 270 270 269 268 268 268 268 271 275 276 276 275 275 278 284 286 288 290 288 286 286 286 284 281 278 276 275 275
235 237 238 237 235 235 236 237 239 240 241 241 242 243 243 243 241 240 241 242 243 243 244 246 246 245 245 245 246 248 249 250 251 252 253 253 253 253 254 255 256 257 258 259 261 262 262 264 266 267 268 268 268 268 268 268 268 267 266 266 266 266 266 265 264 264 266 270 273 275 274 272 272 277 283 286 290 291 288 288 291 291 286 282 281 280 278 277
235 236 238 238 237 236 235 235 237 238 238 238 239 240 241 242 243 244 244 243 244 245 246 247 247 247 247 246 246 247 248 250 250 251 253 253 254 255 255 255 256 257 259 260 261 262 262 263 264 265 267 268 268 268 266 265 264 263 261 260 261 261 262 263 264 266 268 271 274 274 273 272 274 279 282 285 288 287 286 289 292 290 286 284 285 285 283 280
236 235 235 237 238 238 236 235 237 238 237 236 237 238 239 241 243 245 246 245 245 248 248 248 248 248 248 247 246 247 248 249 250 251 252 253 254 255 255 256 257 258 259 260 261 261 262 262 262 264 265 265 266 265 264 262 261 261 260 259 259 260 262 265 268 270 271 272 271 271 271 274 279 283 284 284 284 283 286 289 289 288 286 287 288 287 284 280
236 236 236 236 236 237 237 235 236 239 239 239 239 238 238 240 242 243 244 245 246 246 247 248 249 249 250 249 248 247 248 249 250 251 252 252 253 254 255 256 256 257 257 258 259 260 261 262 262 262 262 262 262 262 261 261 260 261 261 261 261 262 263 266 268 270 270 270 271 272 273 277 281 282 283 283 282 283 285 287 288 288 289 290 290 288 284 279
234 234 234 235 236 237 238 238 237 238 240 241 241 242 241 240 241 243 242 243 244 245 246 248 249 250 251 252 251 251 250 250 251 251 251 251 251 252 253 254 255 256 257 258 258 259 260 260 260 260 259 258 258 259 260 261 261 261 261 262 264 263 263 263 264 266 267 269 272 275 276 279 281 280 279 281 283 284 285 286 287 288 291 293 291 289 286 281
233 231 230 232 234 235 237 239 240 241 241 242 242 243 244 243 241 241 241 240 242 243 243 245 247 249 250 251 251 252 253 254 253 252 251 250 250 250 251 253 254 256 257 258 256 256 256 256 256 256 256 256 257 258 259 260 261 261 262 264 264 263 262 262 262 264 266 268 272 275 277 279 279 279 280 281 282 284 285 286 287 290 293 293 291 288 284 280
233 232 230 229 231 233 234 236 239 241 242 244 244 242 243 243 241 240 240 238 239 241 242 242 244 246 247 248 248 250 253 254 254 253 252 251 251 250 250 252 254 255 256 255 253 251 252 253 253 253 255 256 257 258 259 261 262 263 265 266 265 265 265 263 263 264 266 268 271 273 274 275 277 280 283 282 281 283 283 284 287 291 293 291 288 284 279 276
232 232 231 229 230 231 232 234 236 239 241 242 243 242 242 242 240 240 240 238 238 239 241 242 243 244 245 246 248 249 252 254 254 254 254 253 253 252 250 251 253 253 252 251 252 251 251 252 252 252 254 255 256 258 260 262 263 265 266 266 266 266 265 264 263 264 266 267 269 271 272 274 278 281 281 279 278 279 280 284 288 291 289 285 281 276 272 270
232 233 231 229 228 229 230 233 235 237 239 242 243 243 242 240 239 239 239 238 237 238 238 239 241 242 244 245 247 248 250 252 252 253 253 253 253 252 251 251 251 251 249 250 251 252 252 252 252 253 254 256 257 259 261 262 263 263 263 263 263 264 264 264 263 263 263 264 268 272 274 275 276 276 275 274 275 277 282 287 291 289 285 280 275 271 267 265
232 233 231 228 227 228 228 231 234 235 237 239 241 243 242 240 239 239 238 237 238 238 238 239 239 239 240 242 243 245 247 248 249 249 249 250 250 250 249 249 248 248 248 250 251 252 254 255 254 255 256 258 259 259 259 259 259 259 259 261 262 262 261 260 261 263 265 267 272 275 274 271 271 273 274 273 276 280 284 289 291 287 282 278 271 266 263 262
231 232 231 229 227 227 227 229 231 234 237 238 238 241 242 241 240 240 238 238 239 237 237 240 241 240 239 239 240 242 244 246 247 247 247 247 247 246 246 245 246 246 248 250 251 252 254 254 254 255 256 256 257 257 256 256 257 258 258 259 259 259 260 262 265 268 270 270 272 271 269 269 271 272 273 275 280 282 284 287 287 282 279 275 268 262 261 259
231 231 231 230 228 227 228 228 228 230 233 235 237 240 241 241 241 240 239 240 240 240 241 242 241 241 240 240 240 242 243 246 247 246 247 247 245 245 245 245 246 247 248 249 251 251 252 253 254 255 256 256 257 257 257 257 256 257 258 259 260 262 266 267 267 266 264 265 266 265 266 270 271 270 273 278 281 282 282 284 282 277 275 272 266 261 258 256
232 231 231 231 229 228 229 229 229 229 229 229 231 234 237 238 238 237 237 238 239 240 242 242 240 240 242 242 242 243 244 247 248 247 247 247 246 245 247 247 247 248 249 249 250 250 250 251 253 253 253 253 254 255 256 256 256 257 259 262 264 266 266 263 262 261 260 262 262 261 265 271 273 274 277 279 280 281 281 279 276 273 272 271 268 265 260 256
233 231 230 231 230 230 230 229 230 231 229 228 230 231 231 233 234 233 234 235 236 237 239 240 239 240 242 243 243 245 246 247 248 248 248 248 247 246 247 247 247 249 250 249 249 251 251 251 251 251 251 251 253 256 259 260 260 260 260 260 261 260 259 259 260 259 260 260 259 260 267 273 275 276 277 278 280 281 279 275 272 270 271 271 270 267 263 259
233 233 231 230 231 232 231 229 230 231 230 229 231 231 230 230 231 233 234 235 236 238 239 240 240 241 242 244 245 248 250 249 247 246 247 248 247 246 246 247 248 249 251 251 252 253 255 255 254 254 254 253 255 259 260 259 258 257 256 256 257 256 257 257 258 258 261 262 261 264 271 273 272 273 275 276 278 277 275 273 272 272 272 272 270 267 265 262
232 233 232 232 232 233 232 230 230 231 231 230 231 232 231 232 232 235 236 235 236 238 240 241 241 242 243 244 246 248 250 250 247 246 247 247 247 247 247 247 247 248 249 252 253 254 257 259 258 258 257 253 253 256 256 254 254 254 254 255 255 256 256 257 259 261 263 264 265 268 272 271 269 270 273 274 274 274 274 273 273 273 273 271 268 267 265 263
230 232 233 233 233 233 233 233 233 233 233 233 233 233 232 232 233 235 236 235 236 238 240 241 242 242 243 244 247 249 249 250 250 248 248 246 245 245 246 246 247 249 251 254 257 258 260 261 261 261 259 254 251 252 252 252 253 254 254 255 255 257 258 259 262 264 265 266 267 268 269 269 270 271 272 273 273 274 274 274 273 272 270 268 267 266 264 264
229 230 232 235 236 234 233 233 234 234 234 235 236 235 234 233 233 234 235 237 238 239 240 241 241 242 243 244 246 249 250 250 250 250 249 247 244 244 244 245 248 251 255 256 257 259 261 262 262 262 261 258 254 255 255 253 253 254 255 256 257 258 259 260 261 262 263 265 267 268 268 269 270 270 272 274 275 275 272 270 269 267 267 267 266 265 265 266
230 229 228 231 235 236 235 234 232 232 233 235 237 236 235 234 234 234 236 238 239 240 241 242 242 243 244 244 246 246 245 245 245 245 245 244 243 243 244 247 251 254 257 258 257 257 258 260 260 260 260 258 256 256 256 255 254 254 254 254 255 256 257 258 259 261 262 265 268 268 267 267 268 269 272 274 274 272 270 268 266 266 266 268 268 268 268 268
232 232 229 229 230 231 233 233 233 232 231 232 235 236 236 236 235 235 236 237 238 240 241 241 242 243 242 241 241 240 237 236 237 238 240 242 242 244 247 250 254 257 258 258 256 255 255 256 257 258 259 257 255 256 258 258 257 254 252 253 255 255 256 259 261 263 264 266 266 265 265 267 268 269 269 270 270 272 272 271 268 267 267 268 270 271 272 272
226 228 229 230 230 228 229 232 233 233 231 231 232 234 236 237 236 236 237 236 236 237 239 239 238 238 238 235 234 235 235 238 240 241 244 247 246 245 245 245 247 250 252 253 254 254 253 254 255 256 258 258 256 258 261 260 256 253 254 257 258 258 259 261 262 263 263 264 264 264 265 268 268 266 266 268 269 270 270 269 268 268 268 269 270 272 273 274
Height
5826 5828 5830 5832 5834 5836 5838 5840 5842 5844 5845 5847 5848 5850 5851 5853 5854 5855 5857 5858 5860 5861 5863 5864 5865 5866 5868 5869 5870 5871 5872 5874 5875 5875 5876 5877 5878 5879 5880 5881 5881 5882 5883 5883 5884 5885 5885 5886 5886 5887 5887 5887 5888 5888 5889 5890 5890 5890 5891 5891 5890 5890 5890 5890 5890 5890 5890 5890 5890 5889 5889 5888 5888 5888 5888 5887 5886 5885 5885 5884 5884 5884 5883 5883 5883 5882 5882 5882
5823 5825 5827 5829 5831 5833 5835 5837 5839 5841 5843 5845 5846 5848 5849 5851 5852 5854 5855 5857 5858 5860 5861 5862 5864 5865 5866 5868 5869 5870 5872 5873 5874 5875 5876 5876 5877 5878 5879 5880 5881 5881 5882 5883 5883 5884 5884 5885 5885 5886 5886 5887 5887 5888 5888 5889 5889 5889 5890 5890 5890 5889 5889 5889 5889 5889 5888 5889 5889 5889 5888 5887 5887 5887 5887 5886 5885 5883 5883 5883 5883 5883 5882 5882 5882 5881 5881 5881
5820 5822 5824 5826 5828 5830 5832 5834 5836 5838 5840 5842 5844 5846 5848 5849 5850 5852 5853 5855 5856 5858 5859 5861 5862 5864 5865 5866 5868 5869 5870 5872 5873 5874 5875 5875 5876 5877 5878 5879 5880 5880 5881 5882 5882 5883 5884 5884 5885 5885 5886 5886 5886 5887 5887 5887 5888 5888 5888 5888 5888 5888 5888 5888 5888 5888 5887 5887 5888 5887 5886 5885 5885 5885 5885 5885 5884 5882 5881 5881 5882 5881 5881 5881 5881 5880 5880 5880
5817 5819 5821 5823 5825 5828 5830 5832 5834 5836 5838 5840 5842 5844 5845 5847 5848 5850 5851 5853 5854 5856 5858 5859 5861 5862 5863 5865 5866 5867 5869 5870 5871 5872 5873 5874 5875 5876 5877 5878 5879 5879 5880 5881 5881 5882 5883 5883 5884 5884 5885 5885 5885 5885 5886 5886 5886 5886 5887 5887 5887 5886 5887 5887 5887 5887 5886 5886 5886 5886 5885 5884 5884 5884 5884 5883 5882 5881 5880 5880 5880 5880 5879 5879 5879 5879 5879 5879
5814 5816 5818 5820 5823 5825 5827 5829 5831 5833 5835 5837 5839 5841 5843 5844 5846 5848 5849 5851 5852 5854 5856 5857 5859 5860 5862 5863 5865 5866 5867 5868 5869 5871 5872 5873 5874 5875 5876 5877 5877 5878 5879 5880 5880 5881 5882 5882 5883 5883 5884 5884 5884 5884 5884 5884 5885 5885 5885 5885 5885 5885 5885 5886 5886 5886 5885 5884 5884 5884 5884 5883 5882 5882 5882 5881 5881 5880 5879 5878 5878 5878 5878 5877 5877 5877 5877 5878
5810 5812 5815 5817 5819 5822 5824 5826 5828 5830 5832 5834 5836 5838 5840 5842 5843 5845 5847 5849 5850 5852 5853 5855 5857 5858 5860 5861 5863 5864 5865 5866 5868 5869 5870 5872 5873 5873 5874 5875 5876 5877 5878 5878 5879 5880 5880 5881 5881 5882 5882 5882 5882 5883 5883 5883 5883 5883 5883 5883 5883 5883 5883 5884 5884 5884 5884 5883 5882 5882 5882 5881 5881 5880 5880 5879 5879 5878 5878 5877 5876 5876 5876 5876 5875 5875 5875 5875
5807 5809 5811 5813 5816 5818 5820 5823 5825 5827 5829 5831 5833 5835 5837 5839 5841 5843 5844 5846 5848 5849 5851 5853 5854 5856 5858 5859 5861 5862 5863 5865 5866 5867 5869 5870 5871 5872 5873 5874 5874 5875 5876 5877 5878 5878 5878 5879 5880 5881 5881 5881 5881 5881 5882 5882 5882 5881 5881 5882 5882 5881 5881 5882 5882 5882 5882 5881 5881 5880 5880 5879 5879 5878 5877 5877 5876 5876 5876 5876 5875 5874 5874 5874 5874 5874 5874 5873
5803 5805 5807 5810 5812 5814 5817 5819 5821 5823 5826 5828 5830 5832 5834 5836 5838 5840 5842 5844 5845 5847 5849 5850 5852 5853 5855 5857 5859 5860 5861 5863 5864 5866 5867 5868 5869 5870 5871 5872 5873 5874 5874 5875 5876 5876 5877 5878 5879 5879 5880 5879 5879 5880 5880 5880 5880 5880 5879 5880 5880 5880 5879 5879 5880 5880 5880 5879 5879 5878 5878 5878 5877 5876 5875 5874 5874 5874 5874 5874 5873 5873 5872 5872 5872 5872 5872 5872
5799 5801 5804 5806 5808 5811 5813 5815 5817 5820 5822 5824 5826 5829 5831 5833 5835 5837 5839 5841 5843 5844 5846 5848 5849 5851 5853 5854 5856 5858 5859 5861 5862 5864 5865 5866 5867 5868 5869 5870 5871 5872 5873 5873 5874 5875 5875 5876 5877 5877 5878 5878 5878 5878 5879 5879 5878 5878 5878 5878 5878 5879 5878 5877 5877 5878 5877 5877 5877 5876 5875 5876 5875 5874 5873 5872 5872 5871 5871 5871 5871 5870 5870 5870 5870 5870 5870 5870
5796 5798 5800 5802 5804 5807 5809 5811 5814 5816 5818 5820 5823 5825 5827 5830 5832 5834 5836 5838 5840 5842 5843 5845 5847 5849 5850 5852 5854 5855 5857 5859 5860 5861 5863 5864 5865 5866 5867 5868 5869 5869 5870 5871 5872 5873 5873 5874 5875 5875 5876 5876 5876 5876 5876 5877 5877 5877 5876 5876 5876 5877 5876 5875 5875 5875 5876 5875 5874 5874 5874 5874 5873 5873 5871 5870 5870 5869 5869 5868 5868 5868 5868 5867 5867 5868 5868 5868
5792 5794 5796 5799 5801 5803 5805 5808 5810 5812 5814 5817 5819 5821 5824 5826 5828 5831 5833 5835 5837 5839 5841 5842 5844 5846 5848 5849 5851 5853 5855 5856 5858 5859 5860 5861 5862 5863 5864 5865 5866 5867 5868 5869 5870 5871 5871 5872 5873 5873 5874 5874 5874 5874 5874 5875 5875 5875 5875 5874 5874 5874 5874 5873 5873 5873 5873 5873 5872 5872 5872 5872 5871 5870 5869 5868 5868 5867 5866 5866 5865 5865 5865 5865 5865 5865 5865 5865
5788 5791 5793 5795 5797 5800 5802 5804 5806 5808 5811 5813 5815 5817 5820 5822 5825 5827 5829 5831 5833 5835 5838 5839 5841 5843 5845 5847 5848 5850 5852 5853 5855 5857 5858 5859 5860 5861 5862 5863 5864 5865 5866 5867 5867 5868 5869 5869 5870 5871 5871 5872 5872 5872 5872 5872 5872 5873 5873 5872 5872 5872 5872 5871 5871 5871 5871 5870 5869 5869 5870 5870 5868 5868 5867 5866 5866 5865 5864 5864 5863 5863 5863 5863 5863 5863 5863 5862
5785 5787 5789 5792 5794 5796 5798 5800 5802 5804 5807 5809 5811 5814 5816 5818 5821 5823 5825 5827 5830 5832 5834 5836 5838 5840 5842 5844 5845 5847 5849 5851 5852 5854 5855 5856 5857 5858 5859 5860 5861 5862 5863 5864 5865 5865 5866 5867 5867 5868 5869 5869 5869 5869 5870 5870 5870 5870 5870 5870 5869 5869 5869 5869 5869 5869 5868 5868 5867 5866 5867 5868 5866 5865 5865 5864 5863 5863 5862 5861 5861 5860 5860 5860 5860 5860 5860 5860
5781 5783 5786 5788 5790 5792 5794 5796 5798 5801 5803 5805 5808 5810 5812 5815 5817 5819 5821 5823 5826 5828 5830 5832 5835 5837 5839 5841 5842 5844 5846 5848 5849 5850 5852 5853 5854 5855 5857 5858 5858 5859 5860 5861 5862 5863 5863 5864 5864 5865 5866 5866 5867 5867 5867 5867 5868 5867 5867 5867 5866 5866 5866 5867 5867 5867 5866 5865 5864 5863 5864 5866 5863 5862 5862 5861 5861 5860 5860 5859 5859 5858 5858 5858 5858 5858 5857 5857
5778 5780 5782 5784 5786 5788 5790 5792 5794 5796 5799 5802 5804 5806 5809 5811 5813 5815 5817 5820 5822 5824 5826 5829 5831 5833 5835 5837 5839 5841 5843 5844 5846 5847 5849 5850 5851 5852 5853 5855 5856 5857 5857 5858 5859 5860 5860 5861 5862 5862 5863 5863 5864 5864 5865 5865 5865 5864 5864 5863 5864 5864 5864 5864 5864 5864 5863 5862 5861 5860 5861 5863 5861 5859 5859 5858 5858 5858 5858 5857 5856 5856 5856 5855 5855 5855 5855 5854
5774 5776 5778 5781 5783 5784 5786 5788 5790 5792 5795 5798 5800 5803 5805 5807 5809 5811 5813 5816 5818 5820 5823 5824 5826 5829 5831 5833 5836 5838 5839 5841 5842 5844 5845 5846 5848 5849 5850 5851 5853 5853 5854 5855 5856 5856 5857 5858 5859 5859 5860 5860 5861 5861 5862 5862 5862 5861 5860 5860 5861 5862 5862 5862 5861 5860 5859 5858 5858 5856 5857 5859 5858 5856 5856 5855 5855 5855 5855 5855 5854 5854 5853 5853 5853 5852 5852 5852
5770 5772 5774 5777 5778 5780 5782 5784 5786 5789 5792 5794 5796 5798 5800 5803 5805 5807 5809 5811 5814 5816 5818 5820 5822 5825 5827 5830 5832 5834 5836 5837 5839 5840 5841 5843 5844 5846 5847 5848 5849 5850 5851 5852 5853 5853 5854 5855 5855 5856 5857 5857 5858 5858 5858 5859 5859 5857 5857 5858 5858 5859 5859 5859 5858 5857 5856 5855 5854 5853 5854 5855 5854 5852 5853 5852 5852 5852 5852 5852 5851 5851 5850 5850 5850 5849 5849 5849
5765 5768 5770 5773 5775 5776 5778 5780 5783 5785 5788 5790 5792 5794 5796 5798 5800 5802 5805 5807 5810 5812 5814 5816 5819 5821 5824 5827 5829 5830 5832 5833 5835 5836 5837 5839 5841 5842 5843 5845 5846 5846 5847 5848 5849 5850 5850 5851 5852 5853 5854 5854 5854 5854 5854 5855 5855 5854 5855 5855 5855 5855 5855 5855 5854 5854 5853 5852 5851 5850 5850 5851 5850 5849 5849 5849 5848 5849 5849 5849 5849 5848 5847 5847 5846 5846 5846 5845
5760 5763 5766 5768 5770 5772 5774 5776 5779 5782 5784 5786 5788 5790 5792 5794 5796 5798 5800 5803 5806 5808 5810 5813 5815 5817 5820 5823 5824 5826 5827 5829 5831 5832 5833 5835 5837 5838 5840 5841 5842 5843 5844 5845 5845 5846 5847 5848 5849 5850 5851 5850 5850 5850 5851 5851 5851 5851 5852 5851 5852 5852 5852 5851 5850 5849 5849 5848 5848 5847 5847 5848 5848 5846 5846 5845 5845 5846 5846 5846 5846 5845 5844 5843 5843 5842 5842 5842
5755 5758 5760 5763 5766 5768 5770 5773 5776 5778 5780 5782 5784 5785 5787 5790 5792 5793 5796 5799 5801 5803 5805 5808 5810 5813 5816 5818 5820 5822 5823 5825 5827 5829 5830 5831 5833 5835 5836 5837 5838 5839 5840 5841 5842 5843 5844 5845 5846 5847 5847 5846 5846 5847 5848 5848 5848 5848 5848 5848 5848 5848 5848 5848 5846 5845 5844 5843 5844 5844 5843 5844 5845 5843 5842 5841 5842 5843 5843 5842 5842 5842 5841 5840 5839 5839 5839 5838
5750 5752 5755 5757 5760 5763 5766 5769 5772 5774 5776 5777 5779 5781 5783 5785 5786 5789 5792 5794 5796 5798 5800 5803 5805 5808 5811 5814 5815 5818 5820 5821 5823 5824 5826 5828 5829 5831 5832 5833 5834 5835 5836 5837 5838 5840 5841 5842 5843 5843 5843 5842 5843 5843 5844 5845 5844 5844 5844 5844 5844 5844 5844 5844 5842 5842 5840 5838 5840 5840 5838 5840 5841 5840 5838 5838 5839 5840 5839 5838 5838 5838 5838 5837 5836 5835 5835 5835
5743 5747 5749 5752 5755 5757 5760 5764 5767 5769 5771 5773 5775 5776 5778 5779 5781 5784 5786 5788 5791 5793 5796 5798 5801 5805 5807 5809 5811 5814 5815 5817 5819 5820 5822 5823 5824 5826 5827 5829 5830 5831 5832 5834 5835 5836 5837 5839 5840 5839 5839 5839 5839 5839 5840 5840 5841 5841 5841 5840 5840 5840 5839 5839 5839 5838 5836 5834 5835 5835 5833 5834 5836 5836 5835 5835 5835 5836 5836 5835 5835 5834 5834 5834 5833 5832 5832 5832
5737 5740 5743 5746 5749 5751 5755 5758 5761 5765 5766 5768 5770 5771 5773 5775 5777 5779 5780 5783 5785 5788 5791 5794 5797 5800 5802 5804 5806 5809 5810 5812 5814 5816 5817 5818 5820 5821 5823 5825 5826 5827 5828 5830 5831 5831 5833 5835 5835 5835 5835 5836 5835 5835 5836 5836 5837 5837 5837 5836 5837 5836 5834 5834 5834 5833 5832 5830 5830 5830 5828 5829 5832 5832 5833 5832 5831 5832 5832 5831 5831 5830 5830 5830 5829 5829 5829 5828
5731 5734 5737 5740 5743 5746 5750 5753 5757 5759 5760 5763 5764 5766 5768 5770 5772 5774 5775 5776 5779 5784 5787 5789 5792 5795 5798 5799 5801 5804 5805 5807 5809 5811 5813 5814 5815 5817 5819 5821 5821 5823 5824 5825 5826 5827 5830 5831 5831 5831 5831 5832 5832 5832 5832 5832 5832 5833 5833 5833 5833 5832 5830 5830 5830 5828 5828 5827 5826 5825 5821 5824 5829 5829 5830 5830 5827 5827 5828 5827 5827 5826 5826 5826 5826 5826 5825 5825
5725 5727 5731 5734 5736 5740 5744 5748 5752 5752 5753 5757 5758 5760 5763 5765 5767 5769 5770 5770 5773 5779 5782 5784 5787 5790 5793 5794 5796 5799 5800 5803 5806 5807 5809 5810 5811 5812 5814 5815 5817 5819 5820 5821 5821 5823 5826 5826 5826 5827 5827 5827 5828 5828 5828 5827 5828 5829 5829 5829 5828 5827 5826 5825 5825 5824 5823 5823 5823 5821 5814 5817 5825 5827 5827 5828 5824 5823 5823 5823 5824 5823 5823 5823 5822 5822 5821 5821
5719 5721 5725 5727 5730 5734 5738 5743 5745 5744 5749 5752 5751 5755 5758 5760 5762 5763 5765 5764 5766 5774 5778 5780 5782 5784 5787 5789 5792 5794 5793 5798 5802 5802 5804 5805 5806 5807 5809 5810 5813 5815 5815 5816 5816 5818 5822 5822 5822 5822 5822 5823 5823 5824 5824 5823 5824 5824 5825 5825 5823 5822 5822 5821 5821 5820 5818 5818 5819 5818 5812 5811 5818 5823 5825 5824 5821 5820 5821 5821 5822 5821 5819 5819 5818 5818 5818 5817
5713 5716 5719 5721 5725 5728 5733 5736 5736 5739 5744 5744 5745 5750 5752 5754 5756 5758 5760 5757 5759 5769 5773 5775 5777 5779 5782 5785 5787 5787 5788 5794 5797 5797 5799 5800 5801 5803 5804 5806 5808 5810 5810 5810 5811 5815 5817 5817 5817 5817 5818 5818 5819 5821 5821 5819 5819 5819 5820 5820 5818 5818 5817 5816 5816 5815 5814 5813 5811 5813 5814 5809 5811 5818 5821 5820 5818 5818 5819 5820 5819 5817 5816 5816 5815 5814 5814 5814
5709 5711 5713 5716 5718 5723 5726 5728 5731 5736 5737 5737 5742 5745 5745 5748 5750 5752 5753 5748 5753 5763 5767 5770 5773 5774 5776 5778 5781 5781 5783 5788 5790 5791 5794 5795 5795 5798 5800 5802 5803 5804 5805 5804 5807 5811 5811 5810 5812 5812 5813 5813 5815 5817 5816 5814 5814 5815 5815 5814 5814 5814 5813 5812 5811 5809 5809 5806 5804 5809 5814 5808 5804 5811 5814 5813 5815 5817 5817 5817 5815 5814 5813 5812 5812 5811 5810 5809
5703 5704 5707 5709 5711 5715 5718 5722 5728 5729 5728 5733 5737 5736 5739 5742 5743 5746 5742 5740 5749 5757 5760 5765 5768 5769 5771 5772 5774 5776 5778 5782 5783 5786 5789 5789 5791 5793 5795 5797 5798 5798 5799 5800 5803 5805 5803 5804 5806 5807 5809 5810 5811 5811 5810 5810 5810 5810 5810 5809 5810 5809 5808 5808 5806 5805 5803 5798 5799 5808 5812 5806 5798 5801 5806 5807 5811 5814 5813 5813 5812 5810 5810 5808 5808 5807 5805 5804
5696 5699 5702 5703 5705 5709 5712 5717 5722 5722 5723 5728 5729 5730 5733 5734 5737 5737 5730 5735 5749 5751 5752 5757 5762 5765 5766 5767 5769 5771 5774 5776 5778 5781 5782 5783 5786 5788 5790 5792 5792 5792 5794 5795 5797 5798 5797 5798 5800 5801 5804 5806 5806 5805 5805 5805 5805 5806 5806 5805 5805 5804 5804 5803 5800 5800 5798 5792 5798 5805 5808 5804 5793 5792 5800 5802 5806 5808 5808 5809 5808 5806 5806 5805 5804 5802 5800 5799
5689 5692 5694 5696 5701 5704 5707 5713 5715 5715 5718 5721 5722 5725 5725 5726 5729 5725 5721 5735 5746 5744 5744 5748 5754 5760 5761 5763 5764 5765 5768 5770 5772 5774 5775 5778 5780 5781 5784 5785 5786 5787 5788 5789 5791 5793 5792 5793 5794 5795 5797 5799 5799 5800 5800 5800 5801 5801 5802 5801 5801 5799 5798 5798 5795 5796 5792 5789 5796 5800 5802 5800 5789 5787 5795 5796 5798 5802 5802 5802 5802 5803 5803 5801 5799 5797 5795 5794
5684 5687 5689 5692 5696 5699 5703 5707 5708 5707 5710 5714 5716 5718 5718 5716 5714 5711 5721 5736 5737 5734 5739 5742 5746 5752 5753 5755 5757 5758 5761 5762 5765 5767 5768 5771 5772 5775 5779 5780 5781 5781 5780 5783 5785 5786 5786 5787 5788 5788 5789 5791 5792 5794 5795 5795 5796 5796 5797 5796 5795 5793 5792 5791 5790 5790 5789 5788 5792 5794 5795 5791 5785 5788 5794 5792 5793 5795 5794 5795 5797 5797 5797 5795 5794 5792 5790 5790
5678 5682 5685 5687 5690 5694 5698 5700 5700 5700 5704 5706 5707 5708 5709 5704 5700 5708 5723 5730 5727 5730 5736 5736 5738 5741 5742 5746 5750 5752 5754 5755 5758 5760 5761 5763 5765 5769 5772 5773 5775 5774 5775 5778 5778 5778 5780 5781 5782 5782 5783 5785 5786 5788 5789 5789 5790 5790 5790 5790 5788 5787 5785 5783 5785 5785 5786 5786 5787 5787 5786 5782 5781 5787 5791 5790 5790 5788 5787 5790 5791 5791 5790 5789 5789 5787 5785 5785
5671 5675 5678 5680 5684 5687 5690 5693 5694 5695 5697 5698 5698 5699 5698 5692 5695 5708 5717 5720 5724 5728 5730 5729 5729 5730 5732 5738 5742 5745 5747 5748 5751 5752 5754 5756 5758 5761 5764 5766 5768 5769 5770 5772 5771 5771 5772 5773 5777 5778 5778 5779 5780 5781 5782 5782 5782 5782 5783 5783 5782 5782 5780 5780 5782 5781 5781 5781 5780 5780 5778 5776 5779 5784 5786 5786 5785 5783 5783 5784 5784 5784 5783 5783 5783 5781 5780 5779
5664 5669 5672 5673 5676 5679 5683 5686 5688 5689 5689 5690 5690 5688 5686 5686 5695 5705 5708 5714 5720 5721 5722 5721 5720 5721 5725 5730 5734 5737 5740 5742 5744 5745 5746 5748 5751 5755 5758 5760 5762 5762 5764 5764 5764 5765 5765 5766 5771 5772 5772 5773 5773 5773 5774 5774 5775 5776 5777 5776 5776 5777 5777 5778 5777 5776 5775 5774 5773 5773 5772 5773 5777 5779 5779 5779 5779 5779 5779 5778 5778 5777 5777 5777 5776 5775 5774 5774
5657 5662 5664 5666 5670 5674 5677 5680 5682 5682 5682 5682 5680 5677 5679 5686 5694 5699 5703 5710 5713 5714 5716 5715 5712 5715 5719 5722 5726 5730 5733 5735 5737 5738 5740 5743 5745 5748 5751 5753 5754 5755 5757 5758 5758 5759 5759 5761 5764 5765 5765 5767 5767 5767 5767 5767 5768 5769 5770 5770 5771 5773 5773 5773 5771 5770 5769 5767 5767 5768 5767 5770 5772 5772 5774 5774 5773 5774 5774 5773 5772 5771 5771 5771 5769 5768 5768 5768
5648 5652 5656 5659 5665 5668 5671 5674 5675 5674 5674 5673 5669 5671 5678 5685 5690 5693 5697 5702 5704 5705 5708 5706 5705 5710 5714 5716 5719 5722 5724 5727 5729 5731 5734 5736 5738 5742 5745 5747 5748 5749 5752 5752 5751 5752 5753 5754 5757 5758 5759 5760 5761 5761 5761 5761 5762 5762 5763 5765 5766 5766 5766 5765 5764 5764 5764 5761 5762 5764 5763 5764 5765 5765 5769 5770 5769 5769 5768 5767 5766 5766 5766 5765 5763 5763 5763 5762
5639 5642 5647 5654 5659 5662 5665 5667 5666 5666 5666 5662 5660 5667 5674 5679 5686 5689 5691 5694 5695 5696 5697 5698 5700 5704 5707 5709 5712 5715 5715 5717 5720 5725 5727 5729 5732 5737 5740 5740 5742 5744 5746 5744 5742 5745 5747 5747 5750 5753 5753 5753 5754 5755 5755 5756 5756 5757 5759 5760 5760 5759 5759 5759 5757 5758 5758 5756 5757 5759 5758 5758 5760 5762 5764 5764 5763 5763 5762 5761 5761 5761 5760 5759 5758 5758 5757 5757
5630 5632 5640 5650 5653 5654 5657 5658 5658 5658 5656 5651 5654 5662 5669 5675 5681 5684 5684 5687 5688 5687 5689 5693 5696 5697 5699 5702 5706 5708 5708 5710 5714 5717 5719 5722 5726 5731 5733 5734 5735 5737 5737 5735 5735 5739 5741 5740 5743 5746 5746 5746 5747 5748 5749 5751 5751 5753 5754 5754 5753 5752 5752 5752 5751 5752 5752 5750 5751 5752 5752 5755 5758 5759 5757 5757 5757 5757 5756 5757 5757 5756 5754 5753 5753 5752 5752 5752
5622 5625 5634 5644 5645 5646 5650 5650 5648 5647 5644 5644 5651 5658 5663 5669 5674 5676 5678 5679 5679 5680 5685 5689 5690 5690 5693 5697 5699 5701 5702 5703 5707 5709 5711 5715 5719 5723 5726 5727 5729 5730 5728 5727 5729 5732 5733 5733 5736 5738 5739 5739 5741 5743 5745 5746 5747 5747 5746 5746 5746 5745 5745 5745 5745 5746 5745 5745 5746 5747 5748 5751 5752 5752 5750 5749 5751 5752 5752 5753 5753 5750 5749 5748 5747 5747 5747 5747
5614 5616 5627 5636 5635 5637 5641 5638 5636 5637 5636 5641 5648 5652 5656 5661 5665 5668 5671 5672 5672 5675 5680 5683 5684 5684 5687 5690 5692 5694 5696 5696 5699 5701 5703 5708 5712 5716 5719 5720 5722 5722 5720 5720 5724 5726 5726 5727 5730 5731 5732 5734 5735 5737 5739 5738 5739 5739 5739 5740 5740 5739 5738 5737 5737 5739 5740 5741 5744 5743 5742 5745 5746 5745 5743 5742 5745 5747 5748 5748 5747 5745 5744 5744 5743 5742 5742 5742
5603 5609 5622 5626 5624 5628 5629 5626 5627 5630 5630 5636 5644 5646 5648 5653 5658 5660 5662 5665 5666 5669 5673 5676 5678 5680 5682 5684 5686 5688 5689 5689 5691 5694 5697 5702 5707 5710 5712 5713 5713 5713 5713 5715 5718 5719 5718 5719 5721 5723 5726 5727 5727 5729 5730 5730 5731 5732 5731 5732 5732 5731 5731 5731 5733 5736 5736 5737 5738 5735 5734 5739 5742 5740 5737 5737 5741 5743 5742 5742 5741 5738 5738 5739 5738 5738 5737 5737
5596 5606 5614 5613 5614 5619 5617 5615 5619 5620 5623 5632 5637 5638 5640 5645 5649 5652 5655 5658 5660 5663 5666 5669 5672 5674 5676 5679 5681 5681 5683 5683 5684 5688 5693 5697 5701 5704 5705 5705 5706 5706 5707 5709 5712 5713 5711 5711 5713 5716 5719 5720 5720 5721 5723 5723 5723 5722 5723 5725 5726 5727 5729 5728 5728 5729 5729 5730 5731 5727 5727 5732 5735 5734 5733 5734 5736 5736 5736 5736 5734 5732 5732 5732 5732 5732 5732 5732
5591 5599 5601 5601 5606 5607 5603 5605 5611 5612 5618 5627 5627 5628 5633 5636 5639 5644 5648 5651 5654 5657 5660 5662 5665 5668 5670 5673 5674 5675 5677 5677 5677 5682 5687 5689 5694 5698 5697 5696 5698 5699 5701 5704 5706 5705 5704 5705 5707 5708 5710 5712 5713 5714 5715 5715 5715 5716 5719 5721 5723 5724 5724 5722 5721 5721 5720 5724 5724 5718 5720 5726 5728 5729 5730 5729 5729 5729 5730 5730 5728 5726 5726 5726 5727 5727 5727 5728
5582 5585 5587 5591 5596 5595 5594 5601 5606 5606 5612 5618 5617 5619 5625 5627 5631 5638 5641 5643 5646 5650 5653 5655 5657 5660 5663 5665 5666 5667 5669 5671 5673 5676 5679 5682 5686 5689 5688 5689 5691 5692 5694 5697 5697 5697 5697 5699 5700 5699 5702 5705 5707 5709 5711 5711 5711 5712 5715 5715 5715 5716 5715 5714 5715 5713 5712 5716 5714 5710 5714 5722 5724 5724 5723 5723 5722 5722 5723 5723 5721 5720 5720 5721 5722 5722 5722 5723
5570 5571 5576 5582 5585 5585 5588 5595 5597 5597 5603 5608 5608 5611 5616 5620 5626 5631 5632 5634 5638 5642 5645 5647 5650 5652 5654 5656 5658 5660 5663 5666 5667 5669 5672 5675 5679 5680 5681 5682 5684 5686 5687 5689 5690 5691 5691 5691 5693 5693 5696 5700 5703 5705 5706 5706 5704 5705 5707 5707 5707 5708 5708 5707 5706 5704 5705 5706 5705 5707 5711 5714 5718 5719 5717 5717 5717 5715 5716 5716 5714 5715 5715 5716 5716 5716 5717 5717
5558 5560 5567 5573 5575 5576 5580 5586 5587 5589 5596 5600 5599 5603 5609 5615 5620 5621 5621 5626 5631 5634 5636 5638 5641 5643 5646 5650 5653 5654 5657 5659 5660 5662 5666 5669 5671 5672 5673 5675 5677 5679 5681 5681 5682 5684 5683 5683 5687 5688 5689 5695 5699 5697 5697 5697 5697 5697 5699 5700 5701 5701 5700 5698 5696 5698 5700 5696 5697 5707 5706 5702 5709 5715 5712 5712 5711 5709 5710 5710 5709 5710 5710 5709 5709 5710 5711 5712
5547 5552 5560 5564 5564 5568 5573 5578 5581 5585 5590 5591 5591 5596 5603 5607 5610 5611 5614 5622 5624 5625 5627 5629 5632 5637 5641 5646 5647 5647 5650 5652 5653 5657 5661 5662 5663 5665 5666 5669 5670 5672 5674 5674 5675 5676 5675 5676 5681 5682 5682 5689 5692 5688 5688 5691 5690 5691 5692 5693 5695 5695 5693 5692 5691 5694 5694 5686 5690 5701 5698 5693 5703 5710 5707 5705 5705 5704 5705 5704 5703 5703 5703 5702 5703 5703 5704 5705
5539 5546 5553 5554 5554 5561 5566 5570 5575 5579 5581 5583 5583 5587 5594 5598 5601 5606 5612 5614 5613 5615 5618 5620 5626 5634 5638 5640 5640 5639 5643 5644 5647 5652 5655 5656 5656 5658 5660 5661 5662 5664 5666 5667 5669 5669 5668 5670 5674 5674 5674 5681 5685 5681 5680 5683 5683 5684 5685 5687 5689 5689 5688 5686 5686 5688 5686 5679 5685 5694 5690 5689 5699 5702 5700 5699 5699 5699 5699 5698 5697 5696 5695 5695 5696 5696 5697 5698
5532 5538 5544 5544 5546 5553 5557 5560 5566 5568 5571 5574 5573 5577 5585 5589 5595 5602 5605 5604 5605 5610 5613 5615 5623 5630 5631 5632 5632 5632 5637 5640 5643 5647 5649 5647 5648 5650 5652 5653 5655 5657 5658 5659 5661 5662 5662 5664 5667 5667 5666 5671 5677 5674 5671 5674 5675 5676 5678 5681 5683 5683 5679 5677 5678 5681 5679 5676 5682 5686 5682 5685 5694 5695 5694 5693 5691 5691 5692 5692 5692 5691 5690 5690 5689 5690 5691 5691
5525 5529 5533 5534 5538 5543 5547 5550 5554 5556 5561 5565 5565 5570 5577 5582 5589 5595 5596 5596 5600 5604 5606 5611 5619 5622 5621 5622 5622 5626 5633 5636 5636 5639 5639 5638 5640 5644 5646 5647 5649 5650 5650 5652 5653 5654 5656 5657 5659 5660 5658 5662 5670 5667 5664 5667 5668 5666 5669 5675 5677 5674 5670 5670 5673 5676 5674 5672 5675 5675 5673 5681 5690 5688 5685 5685 5684 5685 5686 5686 5686 5686 5685 5685 5684 5684 5684 5684
5517 5520 5523 5525 5528 5533 5538 5541 5543 5545 5549 5556 5561 5566 5571 5575 5582 5586 5584 5585 5592 5596 5599 5605 5611 5611 5609 5610 5615 5624 5630 5628 5627 5629 5630 5630 5632 5635 5636 5639 5642 5642 5643 5644 5645 5647 5649 5650 5652 5653 5650 5655 5661 5659 5658 5661 5657 5654 5663 5671 5671 5665 5664 5665 5667 5668 5668 5666 5666 5665 5668 5678 5682 5678 5677 5678 5678 5679 5679 5679 5679 5679 5679 5679 5679 5679 5679 5678